KALMAR current weather conditions

sailwx.info

Wind from 270 at 8 knots

Air temperature 6.0° C
Visibility: greater than 5.4 NM
Dewpoint 5.0° C

Last reported at 2017-Jan-19 09:20 UTC.
Time now 2017-Jan-19 10:58 UTC

Location: N 56°44' E 016°18'.
View on Google Maps.

See reports from other nearby stations

  
Tides and Currents Weather Stations Pressure Air Temp Water Temp Dewpoint Dewpoint Depression Visibility Wind Speed Wind Dir Waves Ship Positions
date/time (UTC)wind fromknots sea level pressurealtimeterstation pressurevisibilityair tempwater tempwave heightnotes
2017-Jan-19 09:20 270 8 5.4 6.0
2017-Jan-19 08:50 260 6 5.4 5.0
2017-Jan-19 08:20 260 7 5.4 5.0
2017-Jan-19 07:50 250 6 5.4 5.0
2017-Jan-19 07:20 230 6 5.4 5.0
2017-Jan-19 06:50 240 6 5.4 4.0
2017-Jan-19 06:20 240 6 5.4 4.0
2017-Jan-19 05:50 250 6 5.4 4.0
2017-Jan-19 05:20 260 6 5.4 5.0
2017-Jan-19 04:50 270 6 5.4 5.0
2017-Jan-19 04:20 270 6 5.4 5.0
2017-Jan-19 03:50 290 6 5.4 5.0
2017-Jan-19 03:20 290 9 5.4 5.0
2017-Jan-19 02:50 260 9 5.4 5.0
2017-Jan-19 02:20 260 11 5.4 5.0
2017-Jan-19 01:50 260 11 5.4 4.0
2017-Jan-19 01:20 260 9 5.4 4.0
2017-Jan-19 00:50 260 12 5.4 4.0
2017-Jan-19 00:20 260 8 5.4 4.0
2017-Jan-18 23:50 250 9 5.4 4.0
2017-Jan-18 23:20 240 8 5.4 4.0
2017-Jan-18 22:50 250 8 5.4 4.0
2017-Jan-18 22:20 250 8 5.4 4.0
2017-Jan-18 21:50 250 9 5.4 4.0
2017-Jan-18 21:20 250 7 5.4 4.0
2017-Jan-18 20:50 240 7 5.4 4.0
2017-Jan-18 20:20 250 8 5.4 4.0
2017-Jan-18 19:50 250 9 5.4 4.0
2017-Jan-18 19:20 260 8 5.4 4.0
2017-Jan-18 18:50 260 8 5.4 3.0
2017-Jan-18 18:20 250 8 5.4 3.0
2017-Jan-18 17:50 250 8 5.4 3.0
2017-Jan-18 17:20 250 8 5.4 3.0
2017-Jan-18 16:50 250 9 5.4 3.0
2017-Jan-18 16:20 240 7 5.4 3.0
2017-Jan-18 15:50 230 6 5.4 3.0
2017-Jan-18 15:20 220 6 5.4 3.0
2017-Jan-18 14:50 230 6 5.4 2.0
2017-Jan-18 14:20 220 6 5.4 2.0
2017-Jan-18 13:50 220 6 3.8 2.0 Mist.
2017-Jan-18 13:20 230 6 2.7 2.0 Mist.
2017-Jan-18 12:50 230 6 3.2 2.0 Mist.
2017-Jan-18 12:20 230 6 3.2 2.0 Mist.
2017-Jan-18 11:50 220 6 2.7 2.0 Mist.
2017-Jan-18 11:20 220 6 3.8 2.0 Mist.
2017-Jan-18 10:50 220 6 3.8 2.0 Mist.
2017-Jan-18 10:20 230 6 4.3 2.0 Mist.
2017-Jan-18 09:50 230 6 4.3 2.0 Mist.
2017-Jan-18 09:20 240 6 5.4 2.0
2017-Jan-18 08:50 250 7 5.4 2.0
2017-Jan-18 08:20 250 7 5.4 2.0
2017-Jan-18 07:50 250 7 5.4 2.0
2017-Jan-18 07:20 260 8 4.9 2.0
2017-Jan-18 06:50 260 9 3.2 1.0 Mist.
2017-Jan-18 06:20 260 9 3.8 1.0 Mist.
2017-Jan-18 05:50 260 9 4.3 1.0 Mist.
2017-Jan-18 05:20 250 9 1.8 1.0 Drizzle.
2017-Jan-18 04:50 250 8 1.8 1.0 Mist.
2017-Jan-18 04:20 250 9 5.4 1.0
2017-Jan-18 03:50 250 12 2.7 1.0 Light drizzle.
2017-Jan-18 03:20 250 11 2.6 1.0 Light rain snow.
2017-Jan-18 02:50 250 12 2.2 1.0 Light rain snow.
2017-Jan-18 02:20 250 11 2.3-0.0 Light rain snow.
2017-Jan-18 01:50 240 9 4.3-0.0 Light rain snow.
2017-Jan-18 01:20 240 6 4.9-0.0 Light rain snow.
2017-Jan-18 00:50 230 6 4.3-1.0 Light snow.
2017-Jan-18 00:20 230 6 3.2-1.0 Light snow.
2017-Jan-17 23:50 220 7 3.8-1.0 Light snow.
2017-Jan-17 23:20 220 6 1.9-2.0 Light snow.
2017-Jan-17 22:50 220 6 2.2-2.0 Light snow.
2017-Jan-17 22:20 220 6 1.2-2.0 Light snow.
2017-Jan-17 21:50 220 5 3.2-2.0 Light snow.
2017-Jan-17 21:20 230 6 3.8-2.0 Snow grains. Snow.
2017-Jan-17 20:50 230 6 5.4-2.0 Light snow.
2017-Jan-17 20:20 220 6 5.4-2.0
2017-Jan-17 19:50 220 6 5.4-2.0
2017-Jan-17 19:20 220 6 5.4-2.0
2017-Jan-17 18:50 220 5 5.4-2.0
2017-Jan-17 18:20 220 5 5.4-2.0
2017-Jan-17 17:50 220 6 5.4-2.0
2017-Jan-17 17:20 220 5 5.4-2.0
2017-Jan-17 16:50 220 5 5.4-2.0
2017-Jan-17 16:20 210 5 5.4-2.0
2017-Jan-17 15:50 220 5 5.4-2.0
2017-Jan-17 15:20 220 4 5.4-2.0
2017-Jan-17 14:50 230 4 5.4-2.0
2017-Jan-17 14:20 230 5 5.4-2.0
2017-Jan-17 13:50 240 5 5.4-2.0
2017-Jan-17 13:20 240 5 5.4-2.0
2017-Jan-17 12:50 230 4 5.4-2.0
2017-Jan-17 12:20 220 4 5.4-2.0
2017-Jan-17 11:50 240 2 5.4-2.0
2017-Jan-17 11:20 5.4-2.0
2017-Jan-17 10:50 230 0 5.4-2.0
2017-Jan-17 10:20 280 2 5.4-3.0